TimeCDT,TemperatureF,Dew PointF,Humidity,Sea Level PressureIn,VisibilityMPH,Wind Direction,Wind SpeedMPH,Gust SpeedMPH,PrecipitationIn,Events,Conditions,WindDirDegrees,DateUTC
12:00 AM,-27.4,-32.8,75,30.20,15.0,SE,8.1,-,N/A,,Partly Cloudy,140,2013-04-03 05:00:00
1:00 AM,-28,-34,57,30.21,15,SE,5.8,,,Snow,Snow,140,2013-04-03 06:00:00
1:00 AM,-27.4,-34.6,69,30.21,15.0,SE,5.8,-,N/A,,Partly Cloudy,140,2013-04-03 06:00:00
2:00 AM,-27.4,-34.6,69,30.22,15.0,SSE,6.9,-,N/A,,Clear,160,2013-04-03 07:00:00
3:00 AM,-27.4,-34.6,69,30.23,15.0,South,6.9,-,N/A,,Clear,180,2013-04-03 08:00:00
4:00 AM,-29.2,-36.4,68,30.23,15.0,SSE,5.8,-,N/A,,Partly Cloudy,150,2013-04-03 09:00:00
5:00 AM,-31.0,-38.2,68,30.24,15.0,SSE,4.6,-,N/A,,Scattered Clouds,150,2013-04-03 10:00:00
6:00 AM,-31.0,-38.2,68,30.25,15.0,SSE,3.5,-,N/A,,Partly Cloudy,150,2013-04-03 11:00:00
7:00 AM,-32,-38,57,30.26,15,SE,4.6,,,Snow,Snow,130,2013-04-03 12:00:00
7:00 AM,-31.0,-38.2,68,30.26,15.0,SE,4.6,-,N/A,,Partly Cloudy,130,2013-04-03 12:00:00
8:00 AM,-31.0,-36.4,75,30.27,15.0,SSE,2.3,-,N/A,,Partly Cloudy,150,2013-04-03 13:00:00
9:00 AM,-27.4,-34.6,69,30.28,15.0,SSE,6.9,-,N/A,,Partly Cloudy,160,2013-04-03 14:00:00
10:00 AM,-25.6,-32.8,69,30.28,15.0,SSE,6.9,-,N/A,,Partly Cloudy,160,2013-04-03 15:00:00
11:00 AM,-25.6,-31.0,76,30.28,15.0,South,3.5,-,N/A,,Partly Cloudy,190,2013-04-03 16:00:00
12:00 PM,-23.8,-29.2,76,30.29,15.0,SSE,3.5,-,N/A,,Partly Cloudy,150,2013-04-03 17:00:00
1:00 PM,-23,-29,61,30.30,15,SSE,4.6,,,Snow,Snow,160,2013-04-03 18:00:00
1:00 PM,-23.8,-29.2,76,30.30,15.0,SSE,4.6,-,N/A,,Partly Cloudy,150,2013-04-03 18:00:00
2:00 PM,-20.2,-25.6,76,30.30,15.0,South,4.6,-,N/A,,Partly Cloudy,170,2013-04-03 19:00:00
3:00 PM,-20.2,-25.6,76,30.31,15.0,SE,2.3,-,N/A,,Partly Cloudy,130,2013-04-03 20:00:00
4:00 PM,-16.6,-27.4,58,30.32,15.0,Calm,Calm,-,N/A,,Partly Cloudy,0,2013-04-03 21:00:00
5:00 PM,-20.2,-27.4,69,30.33,15.0,NNE,2.3,-,N/A,,Partly Cloudy,30,2013-04-03 22:00:00
6:00 PM,-20.2,-29.2,63,30.34,15.0,North,3.5,-,N/A,,Partly Cloudy,350,2013-04-03 23:00:00
7:00 PM,-23,-28,62,30.37,15,North,4.6,,,Snow,Snow,0,2013-04-04 00:00:00
7:00 PM,-22.0,-29.2,69,30.37,15.0,North,4.6,-,N/A,,Partly Cloudy,350,2013-04-04 00:00:00
8:00 PM,-23.8,-29.2,76,30.35,15.0,NNE,6.9,-,N/A,,Partly Cloudy,20,2013-04-04 01:00:00
9:00 PM,-23.8,-31.0,69,30.35,15.0,NNE,5.8,-,N/A,,Partly Cloudy,30,2013-04-04 02:00:00
10:00 PM,-25.6,-31.0,76,30.34,15.0,NE,8.1,-,N/A,,Partly Cloudy,40,2013-04-04 03:00:00
11:00 PM,-31.0,-36.4,75,30.35,15.0,North,6.9,-,N/A,,Partly Cloudy,10,2013-04-04 04:00:00